Showing default

BEIDOU 3M19, 44864

Orbit data source: Space-Track

BEIDOU 3M19, 44864 is a payload satellite owned by CNSA (CN) in MEO that was launched on Mon, 16 Dec 2019 UTC via a CHANG ZHENG 3B/YZ-1 launch vehicle from the Xichang Space Center, China (XSC). Payload-class satellites include a variety of spacecraft equipped with specific instruments for various scientific and technological missions. These include communications satellites like Starlink; space stations such as the ISS; scientific satellites like the Hubble; Earth observation satellites from companies like Planet Labs, Umbra, and HawkEye 360; GPS; miniature CubeSats for education and research; and military/defense satellites.

Loading next visibility...
Identifier
44864, 2019-090A
Orbit
MEO
Last TLE update
10 hours ago
Origin
Manufacturer
CAST
Mission
Operational Defense Navigation
Bus & Motor
BD-3M, Unknown motor
Mass
1,014 kg wet, ~850 kg dry
Launch date (UTC)
2019-12-16 (6 years ago)
Launch vehicle
CHANG ZHENG 3B/YZ-1
Launch site
Xichang Space Center, China (XSC)
Object type
Payload
Rocket body
Debris
Shape & HBR
Box + 2 Pan, Unknown HBR
Radar Cross Section
8.984 m², Large (>1 m²)

Expand to show TLE details & history

TLE from 10 hours ago
0 BEIDOU 3M19
1 44864U 19090A   25186.33977568 -.00000076  00000-0  00000+0 0  9998
2 44864  56.2497  74.2824 0017115 291.8184 258.5986  1.86231887 37777
Epoch: 2025-07-05T08:09Z
TLE epoch observation values (Epoch: 2025-07-05T08:09:16.618Z)
Latitude
-8.50913°
Longitude
-145.87505°
Altitude
21,539.312 km
Speed
3.778 km/s
True Right ascension
17h 20m 05s
True Declination
-8° 29' 47"
Sunlit
Object was in daylight at epoch
Visualization orbit readout
Latitude
55.52707°
Longitude
132.20754°
Altitude
21,582.367 km
Speed
3.774 km/s
Apparent Right ascension
12h 59m 54s
Apparent Declination
48° 22' 04"
Sunlit
Object is in daylight
Visualization observer readout
Local Sidereal Time
05:38:51
Azimuth
40.845° NE
Elevation
17.646°
Doppler factor
1
Orbital elements
Apogee altitude
21,575.683 km
Perigee altitude
21,480.16 km
Semi-major axis
27,906.059 km
Eccentricity
0.00171
Inclination
56.2497°
RAAN
74.2824°
Arg. of periapsis
291.8184°
True anomaly
Unknown
Mean anomaly
258.5986°
Eccentric anomaly
Unknown
Mean motion
0.46558 °/min
Orbital period
773.23 mins
BSTAR
0
Loading maneuver chart data...
Loading SW <> Apogee altitude chart data...
Loading historical data...
Loading historical data...
Loading historical data...
Loading historical data...
Loading historical data...
Loading historical data...
Loading historical data...
Other satellites on launch #90 in the year 2019 (2019-12-16 UTC)

BEIDOU 3M19 Visibility forecast

Observer location: undefined°, undefined°

Span
Click to sort rows by Start time (UTC) header in descending order
Start Az.
Max El. time (UTC)
Max El. Az.
Max El.
End time (UTC)
End Az.
21 mins2025-07-05 17:43:26.884Z40.861° NE2025-07-05 17:43:26.884Z40.861° NE16.861°2025-07-05 18:04:26.884Z40.076° NE
162 mins2025-07-06 06:22:26.884Z324.991° NNW2025-07-06 07:41:26.884Z297.897° NW20.435°2025-07-06 09:04:26.884Z265.296° W
170 mins2025-07-06 14:53:26.884Z167.348° S2025-07-06 17:37:26.884Z96.538° ESE43.169°2025-07-06 17:43:26.884Z88.753° E
|